This is the latest recevied weather packets stored in our database for station/object N5PLO-10. If no packets are shown the sender has not sent any weather packets the latest 10 day(s).
| Time | Temp. | Humidity | Pressure | Rain* | Wind** | Luminosity | Snow |
|---|---|---|---|---|---|---|---|
| 1777592901 | 22.22° C | 87% | - | 0 mm | - | - | - |
| 1777592597 | 22.22° C | 88% | - | 0 mm | - | - | - |
| 1777592293 | 22.22° C | 87% | - | 0 mm | - | - | - |
| 1777591989 | 22.22° C | 87% | - | 0 mm | - | - | - |
| 1777591685 | 22.22° C | 87% | - | 0 mm | - | - | - |
| 1777591381 | 22.22° C | 87% | - | 0 mm | - | - | - |
| 1777591076 | 22.22° C | 86% | - | 0 mm | - | - | - |
| 1777590773 | 22.78° C | 86% | - | 0 mm | - | - | - |
| 1777590468 | 22.78° C | 86% | - | 0 mm | - | - | - |
| 1777590166 | 22.78° C | 85% | - | 0 mm | - | - | - |
| 1777589862 | 22.78° C | 85% | - | 0 mm | - | - | - |
| 1777589557 | 22.78° C | 85% | - | 0 mm | - | - | - |
| 1777589256 | 23.33° C | 84% | - | 0 mm | - | - | - |
| 1777588954 | 23.33° C | 84% | - | 0 mm | - | - | - |
| 1777588649 | 23.33° C | 84% | - | 0 mm | - | - | - |
| 1777588344 | 23.33° C | 84% | - | 0 mm | - | - | - |
| 1777588041 | 23.89° C | 83% | - | 0 mm | - | - | - |
| 1777587736 | 25° C | 80% | - | 0 mm | - | - | - |
| 1777587430 | 23.89° C | 83% | - | 0 mm | - | - | - |
| 1777587127 | 23.89° C | 83% | - | 0 mm | - | - | - |
| 1777586823 | 24.44° C | 81% | - | 0 mm | - | - | - |
| 1777586518 | 25° C | 81% | - | 0 mm | - | - | - |
| 1777586214 | 25° C | 80% | - | 0 mm | - | - | - |
| 1777585912 | 24.44° C | 82% | - | 0 mm | - | - | - |
| 1777585606 | 23.89° C | 84% | - | 0 mm | - | - | - |
* Rain latest hour (hover to see other rain measurements)
** Current wind speed in m/s (hover to see current wind gust speed)